Japan Airlines Virtual Airport Information Service

Singapore Changi Airport

ICAO: WSSS Country: Singapore
Latitude: 1.35019 Longitude: 103.994
Latest Arrival : ANA8411 (ROAH-WSSS) Latest Departure : SCC521 (WSSS-ZSPD)


WX CaptureLIVE
Data provided by noaa.gov | Fetched at 16:13:53

METAR : WSSS 041530Z 33005KT 300V010 9999 FEW018 SCT040 BKN300 27/23 Q1012 NOSIG

TAF : WSSS 041100Z 0412/0518 01012KT 9999 FEW015 SCT020


Runway Data for WSSS
Data provided by openaviationdata.com

Runway ID Mag Var Hdg Length Elevation Surface ILS Freq ILS Id ILS Slope
02L 0 22° 13152 ft 22 ft Bituminous 110.9 ICW 3
02C 0 22° 13179 ft 22 ft Bituminous 108.3 ICE 3
20R 0 202° 13152 ft 22 ft Bituminous 108.9 ICH 3
20C 0 202° 13179 ft 22 ft Bituminous 109.7 ICC 3

Singapore Changi Airport, Singapore
Use only for reference purposes



Not for navigational purposes.